Weather History for NW Arkansas Airport, AR

Change the Weather History Date:

Thursday, April 17, 2014

  Actual Average Record
Temperature  
Mean Temperature 52 °F -  
Max Temperature 68 °F - - ()
Min Temperature 37 °F - - ()
Degree Days  
Heating Degree Days 14    
Growing Degree Days 2 (Base 50)    
Moisture  
Dew Point 36 °F    
Average Humidity 57    
Maximum Humidity 79    
Minimum Humidity 29    
Precipitation  
Precipitation 0.00 in - - ()
Sea Level Pressure  
Sea Level Pressure 30.18 in    
Wind  
Wind Speed 4 mph (NNE)    
Max Wind Speed 14 mph    
Max Gust Speed -    
Visibility 10 miles    
Events      
T = Trace of Precipitation, MM = Missing Value Source: NWS Daily Summary

Daily Weather History Graph

Daily Weather History Graph

Search for Another Location

Airport:

Trip Planner

Search our weather history database for the weather conditions in past years. The results will help you decide how hot, cold, wet, or windy it might be!

Date:

Astronomy

Apr. 17, 2014 Rise Set
Actual Time 6:41 AM CDT 7:52 PM CDT
Civil Twilight 6:14 AM CDT 8:19 PM CDT
Nautical Twilight 5:42 AM CDT 8:51 PM CDT
Astronomical Twilight 5:09 AM CDT 9:24 PM CDT
Moon 10:35 PM CDT (4/17) 8:16 AM CDT (4/17)
Length of Visible Light 14h 05m
Length of Day
13h 11m
Waning Gibbous, 93% of the Moon is Illuminated
Apr 17
Waning Gibbous
Apr 22
Last Quarter
Apr 29
New
May 6
First Quarter
May 14
Full

Hourly Weather History & Observations

Time (CDT) Temp. Windchill Dew Point Humidity Pressure Visibility Wind Dir Wind Speed Gust Speed Precip Events Conditions
12:53 AM 44.1 °F 40.8 °F 32.0 °F 63% 30.09 in 10.0 mi South 5.8 mph - N/A   Clear
1:53 AM 43.0 °F 38.2 °F 32.0 °F 65% 30.09 in 10.0 mi SSE 8.1 mph - N/A   Clear
2:53 AM 42.1 °F - 30.9 °F 65% 30.11 in 10.0 mi Calm Calm - N/A   Clear
3:53 AM 39.9 °F - 30.9 °F 70% 30.12 in 10.0 mi Calm Calm - N/A   Clear
4:53 AM 39.0 °F - 30.9 °F 73% 30.13 in 10.0 mi Calm Calm - N/A   Clear
5:53 AM 37.9 °F - 30.9 °F 76% 30.15 in 10.0 mi Calm Calm - N/A   Clear
6:53 AM 37.9 °F - 32.0 °F 79% 30.17 in 10.0 mi Calm Calm - N/A   Clear
7:53 AM 43.0 °F - 34.0 °F 71% 30.19 in 10.0 mi Calm Calm - N/A   Clear
8:53 AM 48.9 °F - 36.0 °F 61% 30.21 in 10.0 mi South 4.6 mph - N/A   Clear
9:53 AM 55.9 °F - 37.0 °F 49% 30.22 in 10.0 mi Variable 4.6 mph - N/A   Clear
12:53 PM 62.1 °F - 36.0 °F 38% 30.22 in 10.0 mi Calm Calm - N/A   Partly Cloudy
1:53 PM 64.0 °F - 36.0 °F 35% 30.20 in 10.0 mi Calm Calm - N/A   Scattered Clouds
2:53 PM 66.9 °F - 36.0 °F 32% 30.19 in 10.0 mi North 6.9 mph - N/A   Clear
3:53 PM 66.0 °F - 35.1 °F 32% 30.19 in 10.0 mi North 4.6 mph - N/A   Clear
4:53 PM 66.0 °F - 33.1 °F 29% 30.17 in 10.0 mi Calm Calm - N/A   Clear
5:53 PM 62.1 °F - 39.9 °F 44% 30.18 in 10.0 mi North 9.2 mph - N/A   Partly Cloudy
6:53 PM 60.1 °F - 41.0 °F 49% 30.20 in 10.0 mi North 13.8 mph - N/A   Mostly Cloudy
7:53 PM 57.0 °F - 41.0 °F 55% 30.21 in 10.0 mi North 10.4 mph - N/A   Scattered Clouds
8:53 PM 55.0 °F - 42.1 °F 62% 30.21 in 10.0 mi North 5.8 mph - N/A   Overcast
9:53 PM 55.0 °F - 42.1 °F 62% 30.21 in 10.0 mi East 4.6 mph - N/A   Overcast
10:53 PM 50.0 °F - 42.1 °F 74% 30.23 in 10.0 mi North 6.9 mph - N/A   Overcast
11:53 PM 50.0 °F - 42.1 °F 74% 30.23 in 10.0 mi North 5.8 mph - N/A   Overcast